| time (UTC) | temp F | wind direction | speed knots | gust knots | rain 1hr in | rain 24hr in | rain mn in | humidity % | barometer mb |
| 20260505024211 | 68 | 26 | 5.2 | 7.0 | 0.00 | 0.00 | 0.00 | 55 | 1029.3 |
| 20260505023708 | 68 | 98 | 3.5 | 7.0 | 0.00 | 0.00 | 0.00 | 55 | 1029.2 |
| 20260505023206 | 67 | 70 | 2.6 | 7.0 | 0.00 | 0.00 | 0.00 | 57 | 1029.2 |
| 20260505022703 | 67 | 43 | 2.6 | 3.5 | 0.00 | 0.00 | 0.00 | 57 | 1029.1 |
| 20260505022200 | 66 | 80 | 1.7 | 4.3 | 0.00 | 0.00 | 0.00 | 58 | 1029.2 |
| 20260505021656 | 67 | 46 | 4.3 | 7.0 | 0.00 | 0.00 | 0.00 | 57 | 1029.4 |
| 20260505021153 | 67 | 94 | 4.3 | 6.1 | 0.00 | 0.00 | 0.00 | 58 | 1029.3 |
| 20260505020649 | 66 | 22 | 2.6 | 6.1 | 0.00 | 0.00 | 0.00 | 59 | 1029.2 |
| 20260505020145 | 66 | 73 | 2.6 | 4.3 | 0.00 | 0.00 | 0.00 | 60 | 1029.3 |
| 20260505015642 | 66 | 85 | 6.1 | 8.7 | 0.00 | 0.00 | 0.00 | 58 | 1029.3 |
| 20260505015139 | 66 | 70 | 2.6 | 5.2 | 0.00 | 0.00 | 0.00 | 60 | 1029.4 |
| 20260505014636 | 65 | 46 | 1.7 | 4.3 | 0.00 | 0.00 | 0.00 | 61 | 1029.4 |
| 20260505014133 | 65 | 45 | 4.3 | 6.1 | 0.00 | 0.00 | 0.00 | 62 | 1029.4 |
| 20260505013630 | 65 | 100 | 5.2 | 6.1 | 0.00 | 0.00 | 0.00 | 62 | 1029.4 |
| 20260505013127 | 64 | 67 | 2.6 | 6.1 | 0.00 | 0.00 | 0.00 | 63 | 1029.3 |
| 20260505012625 | 64 | 63 | 2.6 | 7.0 | 0.00 | 0.00 | 0.00 | 64 | 1029.3 |
| 20260505012122 | 64 | 63 | 4.3 | 5.2 | 0.00 | 0.00 | 0.00 | 64 | 1029.3 |
| 20260505011618 | 62 | 75 | 3.5 | 5.2 | 0.00 | 0.00 | 0.00 | 66 | 1029.5 |
| 20260505011115 | 62 | 111 | 3.5 | 5.2 | 0.00 | 0.00 | 0.00 | 67 | 1029.4 |
| 20260505010610 | 62 | 91 | 2.6 | 5.2 | 0.00 | 0.00 | 0.00 | 68 | 1029.4 |
| 20260505010107 | 61 | 88 | 4.3 | 6.1 | 0.00 | 0.00 | 0.00 | 68 | 1029.5 |
| 20260505005603 | 62 | 76 | 4.3 | 6.1 | 0.00 | 0.00 | 0.00 | 68 | 1029.4 |
| 20260505005101 | 62 | 79 | 4.3 | 5.2 | 0.00 | 0.00 | 0.00 | 69 | 1029.4 |
| 20260505004558 | 62 | 80 | 3.5 | 3.5 | 0.00 | 0.00 | 0.00 | 69 | 1029.6 |
| 20260505004055 | 60 | 42 | 4.3 | 7.8 | 0.00 | 0.00 | 0.00 | 70 | 1029.4 |
| 20260505003552 | 60 | 64 | 4.3 | 7.0 | 0.00 | 0.00 | 0.00 | 70 | 1029.1 |
| 20260505003049 | 60 | 96 | 5.2 | 7.8 | 0.00 | 0.00 | 0.00 | 70 | 1029.1 |
| 20260505002550 | 60 | 65 | 4.3 | 6.1 | 0.00 | 0.00 | 0.00 | 70 | 1029.2 |
| 20260505002049 | 60 | 74 | 2.6 | 5.2 | 0.00 | 0.00 | 0.00 | 71 | 1029.2 |
| 20260505001545 | 59 | 101 | 3.5 | 4.3 | 0.00 | 0.00 | 0.00 | 73 | 1029.3 |
| 20260505001043 | 59 | 91 | 3.5 | 4.3 | 0.00 | 0.00 | 0.00 | 74 | 1029.2 |
| 20260505000540 | 58 | 96 | 4.3 | 4.3 | 0.00 | 0.00 | 0.00 | 75 | 1029.0 |
| 20260505000038 | 58 | 58 | 2.6 | 3.5 | 0.00 | 0.00 | 0.00 | 76 | 1028.9 |
| 20260504235534 | 57 | 80 | 3.5 | 3.5 | 0.00 | 0.00 | 0.00 | 77 | 1028.8 |
| 20260504235031 | 56 | 79 | 2.6 | 5.2 | 0.00 | 0.00 | 0.00 | 78 | 1028.7 |
| 20260504234528 | 56 | 71 | 2.6 | 4.3 | 0.00 | 0.00 | 0.00 | 79 | 1028.8 |
| 20260504234025 | 56 | 82 | 3.5 | 3.5 | 0.00 | 0.00 | 0.00 | 80 | 1028.6 |
| 20260504233520 | 55 | 61 | 1.7 | 3.5 | 0.00 | 0.00 | 0.00 | 80 | 1028.5 |
| 20260504233017 | 55 | 104 | 2.6 | 3.5 | 0.00 | 0.00 | 0.00 | 81 | 1028.6 |
| 20260504232514 | 54 | 92 | 1.7 | 3.5 | 0.00 | 0.00 | 0.00 | 82 | 1028.4 |
| 20260504232012 | 54 | 79 | 2.6 | 3.5 | 0.00 | 0.00 | 0.00 | 82 | 1028.4 |
| 20260504231508 | 53 | 69 | 2.6 | 3.5 | 0.00 | 0.00 | 0.00 | 82 | 1028.1 |
| 20260504231004 | 53 | 97 | 1.7 | 3.5 | 0.00 | 0.00 | 0.00 | 83 | 1028.2 |
| 20260504230500 | 53 | 103 | 2.6 | 3.5 | 0.00 | 0.00 | 0.00 | 83 | 1028.1 |
| 20260504230000 | 53 | 66 | 1.7 | 3.5 | 0.00 | 0.00 | 0.00 | 83 | 1028.1 |
| 20260504225456 | 53 | 29 | 2.6 | 3.5 | 0.00 | 0.00 | 0.00 | 82 | 1027.9 |
| 20260504224953 | 53 | 54 | 2.6 | 3.5 | 0.00 | 0.00 | 0.00 | 82 | 1027.8 |
| 20260504224450 | 53 | 82 | 2.6 | 5.2 | 0.00 | 0.00 | 0.00 | 82 | 1027.6 |
| 20260504223947 | 53 | 71 | 3.5 | 4.3 | 0.00 | 0.00 | 0.00 | 82 | 1027.6 |
| 20260504223443 | 53 | 83 | 3.5 | 4.3 | 0.00 | 0.00 | 0.00 | 82 | 1027.7 |
| 20260504222938 | 53 | 52 | 2.6 | 2.6 | 0.00 | 0.00 | 0.00 | 81 | 1027.7 |
| 20260504222437 | 54 | 60 | 2.6 | 2.6 | 0.00 | 0.00 | 0.00 | 81 | 1027.7 |
| 20260504221934 | 54 | 33 | 0.9 | 4.3 | 0.00 | 0.00 | 0.00 | 81 | 1027.6 |
| 20260504221431 | 54 | 70 | 6.1 | 7.0 | 0.00 | 0.00 | 0.00 | 81 | 1027.7 |
| 20260504220928 | 55 | 75 | 4.3 | 7.8 | 0.00 | 0.00 | 0.00 | 81 | 1027.6 |
| 20260504220424 | 55 | 91 | 7.0 | 7.0 | 0.00 | 0.00 | 0.00 | 80 | 1027.5 |
| 20260504215922 | 55 | 82 | 8.7 | 10.4 | 0.00 | 0.00 | 0.00 | 81 | 1027.6 |
| 20260504215418 | 55 | 88 | 5.2 | 12.2 | 0.00 | 0.00 | 0.00 | 81 | 1027.5 |
| 20260504214915 | 54 | 69 | 5.2 | 8.7 | 0.00 | 0.00 | 0.00 | 82 | 1027.3 |
| 20260504214411 | 54 | 74 | 6.1 | 13.9 | 0.00 | 0.00 | 0.00 | 82 | 1027.4 |
| 20260504213908 | 54 | 83 | 6.1 | 12.2 | 0.00 | 0.00 | 0.00 | 82 | 1027.3 |
| 20260504213404 | 54 | 81 | 7.0 | 10.4 | 0.00 | 0.00 | 0.00 | 83 | 1027.4 |
| 20260504212902 | 54 | 86 | 5.2 | 11.3 | 0.00 | 0.00 | 0.00 | 83 | 1027.3 |
| 20260504212357 | 54 | 99 | 7.0 | 9.6 | 0.00 | 0.00 | 0.00 | 84 | 1027.4 |
| 20260504211855 | 54 | 84 | 5.2 | 8.7 | 0.00 | 0.00 | 0.00 | 84 | 1027.4 |
| 20260504211351 | 54 | 89 | 3.5 | 8.7 | 0.00 | 0.00 | 0.00 | 85 | 1027.5 |
| 20260504210849 | 53 | 73 | 4.3 | 10.4 | 0.00 | 0.00 | 0.00 | 86 | 1027.6 |
| 20260504210345 | 53 | 95 | 6.1 | 8.7 | 0.00 | 0.00 | 0.00 | 86 | 1027.5 |
| 20260504205843 | 53 | 73 | 3.5 | 5.2 | 0.00 | 0.00 | 0.00 | 87 | 1027.6 |
| 20260504205341 | 52 | 79 | 4.3 | 7.8 | 0.00 | 0.00 | 0.00 | 88 | 1027.6 |
| 20260504204838 | 51 | 99 | 7.0 | 7.8 | 0.00 | 0.00 | 0.00 | 88 | 1027.7 |
| 20260504204337 | 51 | 107 | 2.6 | 3.5 | 0.00 | 0.00 | 0.00 | 88 | 1027.6 |
| 20260504203836 | 51 | 100 | 2.6 | 4.3 | 0.00 | 0.00 | 0.00 | 89 | 1027.6 |
| 20260504203332 | 51 | 91 | 3.5 | 3.5 | 0.00 | 0.00 | 0.00 | 89 | 1027.7 |
| 20260504202828 | 50 | 96 | 1.7 | 3.5 | 0.00 | 0.00 | 0.00 | 89 | 1027.6 |
| 20260504202325 | 50 | 110 | 2.6 | 4.3 | 0.00 | 0.00 | 0.00 | 90 | 1027.7 |
| 20260504201822 | 50 | 111 | 2.6 | 3.5 | 0.00 | 0.00 | 0.00 | 90 | 1027.7 |
| 20260504201319 | 49 | 126 | 1.7 | 2.6 | 0.00 | 0.00 | 0.00 | 90 | 1027.5 |
| 20260504200817 | 49 | 103 | 2.6 | 3.5 | 0.00 | 0.00 | 0.00 | 90 | 1027.6 |
| 20260504200313 | 48 | 136 | 1.7 | 2.6 | 0.00 | 0.00 | 0.00 | 90 | 1027.5 |
| 20260504195809 | 48 | 147 | 0.0 | 1.7 | 0.00 | 0.00 | 0.00 | 89 | 1027.8 |
| 20260504195305 | 48 | 155 | 0.9 | 1.7 | 0.00 | 0.00 | 0.00 | 90 | 1027.7 |
| 20260504194802 | 48 | 166 | 0.9 | 0.9 | 0.00 | 0.00 | 0.00 | 89 | 1027.8 |
| 20260504194258 | 48 | 143 | 0.9 | 1.7 | 0.00 | 0.00 | 0.00 | 89 | 1027.7 |
| 20260504193754 | 48 | 127 | 1.7 | 1.7 | 0.00 | 0.00 | 0.00 | 89 | 1027.6 |
| 20260504193252 | 48 | 126 | 0.0 | 0.9 | 0.00 | 0.00 | 0.00 | 89 | 1027.7 |
| 20260504192750 | 48 | 173 | 0.0 | 1.7 | 0.00 | 0.00 | 0.00 | 89 | 1027.7 |
| 20260504192248 | 48 | 195 | 1.7 | 1.7 | 0.00 | 0.00 | 0.00 | 89 | 1027.7 |
| 20260504191747 | 48 | 214 | 0.9 | 1.7 | 0.00 | 0.00 | 0.00 | 88 | 1027.9 |
| 20260504191243 | 48 | 175 | 0.0 | 0.9 | 0.00 | 0.00 | 0.00 | 88 | 1027.8 |
| 20260504190739 | 49 | 160 | 1.7 | 1.7 | 0.00 | 0.00 | 0.00 | 88 | 1028.0 |
| 20260504190235 | 49 | 162 | 1.7 | 2.6 | 0.00 | 0.00 | 0.00 | 88 | 1028.0 |
| 20260504185732 | 49 | 188 | 0.9 | 1.7 | 0.00 | 0.00 | 0.00 | 88 | 1027.9 |
| 20260504185229 | 49 | 181 | 0.9 | 2.6 | 0.00 | 0.00 | 0.00 | 88 | 1028.1 |
| 20260504184725 | 49 | 196 | 2.6 | 2.6 | 0.00 | 0.00 | 0.00 | 89 | 1028.1 |
| 20260504184221 | 49 | 181 | 0.9 | 1.7 | 0.00 | 0.00 | 0.00 | 88 | 1028.2 |
| 20260504183717 | 49 | 187 | 0.9 | 2.6 | 0.00 | 0.00 | 0.00 | 88 | 1028.1 |
| 20260504183214 | 49 | 203 | 0.9 | 1.7 | 0.00 | 0.00 | 0.00 | 88 | 1028.1 |
| 20260504182712 | 49 | 188 | 0.9 | 2.6 | 0.00 | 0.00 | 0.00 | 88 | 1028.3 |
| 20260504182209 | 49 | 183 | 1.7 | 1.7 | 0.00 | 0.00 | 0.00 | 88 | 1028.1 |
| 20260504181706 | 49 | 169 | 0.9 | 1.7 | 0.00 | 0.00 | 0.00 | 87 | 1027.9 |
| 20260504181204 | 49 | 177 | 0.9 | 1.7 | 0.00 | 0.00 | 0.00 | 87 | 1028.1 |
| 20260504180703 | 49 | 155 | 0.0 | 1.7 | 0.00 | 0.00 | 0.00 | 87 | 1028.0 |
| 20260504180201 | 50 | 157 | 0.0 | 0.9 | 0.00 | 0.00 | 0.00 | 87 | 1028.2 |
| 20260504175658 | 50 | 147 | 0.0 | 1.7 | 0.00 | 0.00 | 0.00 | 87 | 1028.1 |
| 20260504175154 | 50 | 132 | 0.9 | 1.7 | 0.00 | 0.00 | 0.00 | 86 | 1028.0 |
| 20260504174653 | 50 | 149 | 1.7 | 3.5 | 0.00 | 0.00 | 0.00 | 87 | 1028.1 |
| 20260504174149 | 50 | 121 | 2.6 | 2.6 | 0.00 | 0.00 | 0.00 | 87 | 1028.2 |
| 20260504173646 | 51 | 128 | 1.7 | 2.6 | 0.00 | 0.00 | 0.00 | 87 | 1028.3 |
| 20260504173143 | 51 | 119 | 2.6 | 3.5 | 0.00 | 0.00 | 0.00 | 87 | 1028.3 |
| 20260504172640 | 51 | 137 | 2.6 | 3.5 | 0.00 | 0.00 | 0.00 | 87 | 1028.3 |
| 20260504172137 | 51 | 145 | 2.6 | 3.5 | 0.00 | 0.00 | 0.00 | 87 | 1028.5 |
| 20260504171633 | 51 | 138 | 4.3 | 4.3 | 0.00 | 0.00 | 0.00 | 87 | 1028.3 |
| 20260504171130 | 50 | 130 | 2.6 | 4.3 | 0.00 | 0.00 | 0.00 | 87 | 1028.3 |
| 20260504170626 | 50 | 132 | 2.6 | 3.5 | 0.00 | 0.00 | 0.00 | 87 | 1028.4 |
| 20260504170124 | 49 | 151 | 1.7 | 2.6 | 0.00 | 0.00 | 0.00 | 86 | 1028.6 |
| 20260504151010 | 55 | 133 | 5.2 | 6.1 | 0.00 | 0.00 | 0.00 | 79 | 1028.6 |
| 20260504150507 | 55 | 127 | 5.2 | 5.2 | 0.00 | 0.00 | 0.00 | 79 | 1028.7 |
| 20260504140933 | 56 | 131 | 4.3 | 7.0 | 0.00 | 0.00 | 0.00 | 79 | 1029.1 |
| 20260504140429 | 56 | 138 | 5.2 | 6.1 | 0.00 | 0.00 | 0.00 | 78 | 1029.4 |
| 20260504130354 | 58 | 133 | 6.1 | 7.0 | 0.00 | 0.00 | 0.00 | 76 | 1028.8 |
| 20260504120317 | 59 | 142 | 5.2 | 7.0 | 0.00 | 0.00 | 0.00 | 77 | 1028.6 |
| 20260504110241 | 61 | 152 | 4.3 | 7.0 | 0.00 | 0.00 | 0.00 | 75 | 1028.5 |
| 20260504100205 | 62 | 198 | 3.5 | 4.3 | 0.00 | 0.00 | 0.00 | 74 | 1028.0 |
| 20260504090128 | 65 | 219 | 12.2 | 12.2 | 0.00 | 0.00 | 0.00 | 70 | 1027.7 |
| 20260504081558 | 67 | 218 | 7.8 | 13.9 | 0.00 | 0.00 | 0.00 | 65 | 1028.0 |
| 20260504081054 | 67 | 223 | 7.8 | 13.0 | 0.00 | 0.00 | 0.00 | 64 | 1028.1 |
| 20260504080551 | 67 | 221 | 11.3 | 15.6 | 0.00 | 0.00 | 0.00 | 63 | 1028.0 |
| 20260504050403 | 70 | 259 | 1.7 | 3.5 | 0.00 | 0.00 | 0.00 | 51 | 1028.4 |
| 20260504045900 | 71 | 357 | 3.5 | 4.3 | 0.00 | 0.00 | 0.00 | 50 | 1028.4 |
| 20260504045355 | 71 | 118 | 1.7 | 7.0 | 0.00 | 0.00 | 0.00 | 50 | 1028.7 |
| 20260504044852 | 71 | 166 | 1.7 | 7.0 | 0.00 | 0.00 | 0.00 | 50 | 1028.7 |
| 20260504044350 | 70 | 286 | 0.0 | 3.5 | 0.00 | 0.00 | 0.00 | 50 | 1028.6 |
| 20260504043847 | 69 | 344 | 0.0 | 3.5 | 0.00 | 0.00 | 0.00 | 51 | 1029.0 |
| 20260504043344 | 69 | 68 | 3.5 | 6.1 | 0.00 | 0.00 | 0.00 | 50 | 1028.9 |
| 20260504042841 | 69 | 103 | 7.0 | 7.8 | 0.00 | 0.00 | 0.00 | 52 | 1029.0 |
| 20260504042337 | 70 | 31 | 2.6 | 5.2 | 0.00 | 0.00 | 0.00 | 52 | 1029.0 |
| 20260504041834 | 71 | 60 | 3.5 | 3.5 | 0.00 | 0.00 | 0.00 | 51 | 1029.3 |
| 20260504041330 | 69 | 134 | 1.7 | 6.1 | 0.00 | 0.00 | 0.00 | 54 | 1029.3 |
| 20260504040826 | 69 | 352 | 1.7 | 4.3 | 0.00 | 0.00 | 0.00 | 54 | 1029.2 |
| 20260504040324 | 68 | 10 | 7.0 | 8.7 | 0.00 | 0.00 | 0.00 | 54 | 1029.5 |
| 20260504035820 | 69 | 359 | 2.6 | 6.1 | 0.00 | 0.00 | 0.00 | 53 | 1029.5 |
| 20260504035318 | 70 | 79 | 4.3 | 5.2 | 0.00 | 0.00 | 0.00 | 53 | 1029.4 |
| 20260504034815 | 68 | 88 | 0.9 | 4.3 | 0.00 | 0.00 | 0.00 | 55 | 1029.7 |
| 20260504034313 | 69 | 85 | 3.5 | 6.1 | 0.00 | 0.00 | 0.00 | 55 | 1029.8 |
| 20260504033809 | 68 | 57 | 4.3 | 5.2 | 0.00 | 0.00 | 0.00 | 55 | 1030.0 |
| 20260504033307 | 68 | 25 | 2.6 | 6.1 | 0.00 | 0.00 | 0.00 | 55 | 1029.9 |
| 20260504032803 | 67 | 76 | 3.5 | 6.1 | 0.00 | 0.00 | 0.00 | 56 | 1029.8 |
| 20260504032300 | 68 | 103 | 7.0 | 7.8 | 0.00 | 0.00 | 0.00 | 56 | 1029.9 |
| 20260504031757 | 67 | 57 | 4.3 | 6.1 | 0.00 | 0.00 | 0.00 | 57 | 1030.0 |
| 20260504031254 | 67 | 99 | 6.1 | 8.7 | 0.00 | 0.00 | 0.00 | 58 | 1029.9 |
| 20260504030750 | 67 | 87 | 6.1 | 9.6 | 0.00 | 0.00 | 0.00 | 58 | 1029.9 |
| 20260504030248 | 67 | 60 | 7.8 | 8.7 | 0.00 | 0.00 | 0.00 | 58 | 1030.0 |
| 20260504025744 | 66 | 98 | 9.6 | 9.6 | 0.00 | 0.00 | 0.00 | 58 | 1030.2 |
| 20260504025241 | 66 | 74 | 6.1 | 10.4 | 0.00 | 0.00 | 0.00 | 58 | 1030.2 |
| 20260504024738 | 67 | 26 | 4.3 | 6.1 | 0.00 | 0.00 | 0.00 | 57 | 1030.2 |